Location: Budapest
(47.5000°N, 19.0830°E)
Time: 15:18:53
(UTC+01:00)

ISS - Visible Passes

Search period start: 21 January 2021 00:00
Search period end: 31 January 2021 00:00
Orbit: 418 x 419 km, 51.6° (Epoch: 21 January)

Date Brightness Start Highest point End Pass type
(mag) Time Alt. Az. Time Alt. Az. Time Alt. Az.
21 Jan -3.2 17:55:07 10° SW 17:58:20 44° SSE 17:59:24 32° E visible
21 Jan -0.5 19:31:49 10° W 19:32:21 14° W 19:32:21 14° W visible
22 Jan -2.5 17:07:45 10° SSW 17:10:42 29° SE 17:13:40 10° E visible
22 Jan -3.0 18:43:58 10° WSW 18:46:41 50° WNW 18:46:41 50° WNW visible
23 Jan -3.8 17:56:11 10° WSW 17:59:32 87° NNW 18:00:58 32° ENE visible
23 Jan -0.5 19:33:23 10° WNW 19:33:55 14° WNW 19:33:55 14° WNW visible
24 Jan -3.6 17:08:27 10° SW 17:11:47 66° SSE 17:15:09 10° ENE visible
24 Jan -2.6 18:45:29 10° W 18:48:08 39° NW 18:48:08 39° NW visible
25 Jan -3.3 17:57:34 10° W 18:00:51 51° NNW 18:02:20 28° NE visible
25 Jan -0.5 19:34:49 10° WNW 19:35:17 13° WNW 19:35:17 13° WNW visible
26 Jan -3.5 17:09:39 10° WSW 17:13:01 65° NNW 17:16:23 10° ENE visible
26 Jan -2.4 18:46:57 10° WNW 18:49:27 34° NNW 18:49:27 34° NNW visible
27 Jan -2.9 17:59:02 10° WNW 18:02:14 40° N 18:03:37 26° NE visible
27 Jan -0.5 19:36:05 10° WNW 19:36:33 13° WNW 19:36:33 13° WNW visible
28 Jan -3.1 17:11:05 10° W 17:14:19 44° N 17:17:34 10° ENE visible
28 Jan -2.6 18:48:15 10° WNW 18:50:43 36° NNW 18:50:43 36° NNW visible
29 Jan -3.0 18:00:23 10° WNW 18:03:36 40° N 18:04:54 27° NE visible
29 Jan -0.6 19:37:15 10° WNW 19:37:51 14° WNW 19:37:51 14° WNW visible
30 Jan -2.9 17:12:28 10° WNW 17:15:39 39° N 17:18:52 10° ENE visible
30 Jan -3.0 18:49:25 10° WNW 18:52:04 49° NW 18:52:04 49° NW visible
